QPF
0.06 0.07 0.08 0.07 0.07 0.09 0.08 0.09 0.08 0.05 0.04 0.03 0.03 0.03 0.02 0.02 0.03 0.03 0.03 0.03 0.04 0.05 0.05 0.06 0.06 0.06 0.06 0.05 0.05 0.04 0.03 0.03 0.02 0.02 0.01 0.01 0.02 0.02 0.01 0.02 0.02 0.01 0.01
0.08 0.09 0.08 0.12 0.11 0.09 0.08 0.08 0.06 0.08 0.07 0.05 0.04 0.03 0.02 0.03 0.03 0.03 0.04 0.04 0.04 0.04 0.04 0.04 0.05 0.06 0.06 0.06 0.07 0.06 0.04 0.04 0.04 0.03 0.02 0.02 0.02 0.02 0.02 0.02 0.02 0.01 0.01
0.11 0.10 0.08 0.12 0.13 0.10 0.10 0.09 0.08 0.08 0.07 0.07 0.07 0.04 0.04 0.03 0.03 0.03 0.03 0.03 0.03 0.03 0.03 0.04 0.05 0.06 0.06 0.08 0.09 0.07 0.06 0.05 0.05 0.04 0.02 0.02 0.02 0.02 0.02 0.02 0.02 0.01 0.00
0.10 0.11 0.09 0.09 0.12 0.09 0.10 0.11 0.09 0.09 0.10 0.11 0.12 0.08 0.05 0.05 0.03 0.04 0.03 0.03 0.04 0.03 0.04 0.04 0.04 0.04 0.05 0.09 0.10 0.08 0.08 0.07 0.05 0.04 0.03 0.02 0.02 0.02 0.02 0.01 0.01 0.01 0.00
0.07 0.09 0.10 0.11 0.09 0.08 0.10 0.08 0.09 0.09 0.10 0.11 0.08 0.07 0.04 0.04 0.03 0.02 0.02 0.02 0.04 0.03 0.05 0.04 0.03 0.03 0.04 0.06 0.07 0.07 0.07 0.07 0.05 0.04 0.04 0.04 0.04 0.03 0.02 0.01 0.01 0.01 0.00
0.06 0.07 0.06 0.09 0.09 0.09 0.11 0.09 0.10 0.09 0.09 0.10 0.05 0.04 0.03 0.02 0.03 0.02 0.01 0.01 0.02 0.02 0.03 0.04 0.06 0.04 0.03 0.03 0.06 0.08 0.09 0.10 0.08 0.07 0.05 0.05 0.05 0.04 0.03 0.03 0.02 0.01 0.01
0.07 0.11 0.06 0.10 0.11 0.11 0.12 0.11 0.10 0.08 0.08 0.09 0.09 0.08 0.03 0.01 0.01 0.01 0.01 0.01 0.02 0.02 0.02 0.05 0.07 0.07 0.05 0.03 0.03 0.04 0.07 0.11 0.12 0.12 0.09 0.06 0.05 0.03 0.03 0.03 0.02 0.02 0.01
0.09 0.08 0.11 0.10 0.10 0.12 0.13 0.13 0.13 0.11 0.09 0.10 0.11 0.10 0.08 0.05 0.03 0.01 0.01 0.01 0.02 0.03 0.03 0.04 0.05 0.07 0.04 0.05 0.04 0.02 0.05 0.09 0.10 0.12 0.11 0.09 0.06 0.05 0.04 0.03 0.02 0.02 0.02
0.08 0.07 0.09 0.11 0.11 0.12 0.15 0.15 0.13 0.14 0.14 0.12 0.12 0.13 0.12 0.11 0.07 0.03 0.01 0.01 0.01 0.03 0.03 0.04 0.03 0.04 0.04 0.05 0.07 0.04 0.04 0.04 0.05 0.07 0.09 0.10 0.09 0.07 0.05 0.04 0.04 0.05 0.05
0.05 0.06 0.12 0.13 0.14 0.14 0.15 0.12 0.11 0.14 0.15 0.13 0.11 0.12 0.14 0.14 0.13 0.09 0.06 0.04 0.02 0.02 0.03 0.03 0.03 0.03 0.04 0.05 0.05 0.03 0.02 0.03 0.03 0.04 0.06 0.09 0.12 0.10 0.07 0.06 0.06 0.07 0.06
0.04 0.03 0.08 0.10 0.12 0.13 0.11 0.09 0.09 0.10 0.10 0.10 0.11 0.11 0.12 0.13 0.13 0.11 0.10 0.09 0.06 0.04 0.03 0.03 0.03 0.04 0.04 0.04 0.07 0.04 0.03 0.03 0.02 0.02 0.03 0.06 0.10 0.10 0.09 0.09 0.09 0.11 0.12
0.04 0.04 0.05 0.07 0.07 0.06 0.07 0.07 0.08 0.09 0.09 0.09 0.10 0.09 0.10 0.12 0.12 0.12 0.09 0.08 0.07 0.05 0.03 0.02 0.02 0.03 0.03 0.03 0.03 0.02 0.02 0.02 0.02 0.03 0.03 0.03 0.06 0.08 0.10 0.10 0.10 0.12 0.14
0.03 0.05 0.05 0.06 0.05 0.06 0.06 0.08 0.09 0.08 0.08 0.08 0.10 0.09 0.09 0.09 0.12 0.14 0.13 0.11 0.09 0.07 0.05 0.03 0.02 0.03 0.02 0.03 0.04 0.02 0.01 0.01 0.02 0.03 0.03 0.04 0.05 0.05 0.07 0.10 0.12 0.12 0.13
0.04 0.04 0.06 0.05 0.05 0.05 0.05 0.07 0.08 0.08 0.07 0.07 0.06 0.07 0.07 0.06 0.07 0.08 0.11 0.12 0.09 0.07 0.07 0.06 0.04 0.03 0.03 0.03 0.03 0.02 0.02 0.02 0.02 0.03 0.04 0.04 0.04 0.05 0.06 0.07 0.08 0.08 0.09
0.05 0.08 0.08 0.05 0.04 0.05 0.04 0.04 0.05 0.05 0.05 0.06 0.05 0.05 0.05 0.05 0.06 0.07 0.09 0.11 0.10 0.07 0.05 0.05 0.04 0.03 0.04 0.03 0.02 0.01 0.02 0.02 0.02 0.03 0.03 0.04 0.05 0.05 0.05 0.06 0.07 0.07 0.08
0.02 0.05 0.07 0.08 0.07 0.05 0.04 0.04 0.04 0.04 0.04 0.04 0.04 0.04 0.05 0.05 0.06 0.06 0.07 0.09 0.10 0.09 0.06 0.04 0.05 0.05 0.04 0.03 0.03 0.03 0.03 0.03 0.02 0.02 0.03 0.04 0.05 0.06 0.07 0.07 0.07 0.08 0.10
0.01 0.02 0.04 0.06 0.08 0.07 0.06 0.04 0.04 0.03 0.03 0.03 0.03 0.03 0.04 0.05 0.04 0.05 0.06 0.06 0.07 0.08 0.07 0.05 0.06 0.06 0.06 0.05 0.05 0.06 0.05 0.05 0.04 0.03 0.03 0.03 0.04 0.06 0.08 0.08 0.07 0.07 0.07
0.01 0.01 0.02 0.04 0.08 0.08 0.07 0.06 0.05 0.03 0.03 0.03 0.04 0.03 0.03 0.03 0.03 0.03 0.04 0.04 0.05 0.06 0.07 0.07 0.06 0.06 0.06 0.06 0.06 0.06 0.05 0.04 0.05 0.04 0.04 0.04 0.04 0.05 0.07 0.07 0.07 0.07 0.07
0.02 0.01 0.02 0.02 0.03 0.03 0.04 0.04 0.03 0.03 0.03 0.03 0.03 0.03 0.03 0.03 0.02 0.03 0.03 0.04 0.04 0.04 0.06 0.06 0.05 0.05 0.04 0.05 0.06 0.08 0.09 0.10 0.09 0.08 0.07 0.05 0.04 0.04 0.05 0.06 0.06 0.08 0.09
0.01 0.02 0.02 0.02 0.02 0.02 0.02 0.02 0.02 0.02 0.04 0.03 0.02 0.02 0.02 0.02 0.03 0.03 0.03 0.04 0.04 0.04 0.05 0.06 0.06 0.06 0.05 0.06 0.08 0.09 0.08 0.07 0.06 0.05 0.05 0.04 0.03 0.03 0.03 0.03 0.04 0.04 0.04
0.01 0.02 0.02 0.02 0.01 0.02 0.02 0.02 0.02 0.02 0.02 0.02 0.02 0.02 0.02 0.02 0.02 0.02 0.02 0.03 0.04 0.05 0.05 0.06 0.06 0.05 0.05 0.05 0.05 0.06 0.05 0.06 0.04 0.04 0.05 0.04 0.04 0.04 0.03 0.04 0.03 0.03 0.02
0.02 0.03 0.02 0.02 0.02 0.01 0.01 0.02 0.02 0.01 0.02 0.02 0.02 0.02 0.02 0.01 0.01 0.01 0.01 0.01 0.02 0.04 0.05 0.06 0.06 0.06 0.06 0.06 0.06 0.05 0.05 0.06 0.05 0.04 0.04 0.04 0.04 0.05 0.04 0.03 0.03 0.02 0.01
0.05 0.05 0.03 0.02 0.02 0.02 0.02 0.01 0.01 0.01 0.02 0.02 0.02 0.01 0.01 0.01 0.01 0.01 0.01 0.01 0.01 0.01 0.02 0.03 0.04 0.05 0.06 0.08 0.09 0.10 0.10 0.10 0.10 0.08 0.08 0.08 0.07 0.07 0.07 0.06 0.05 0.03 0.02
0.08 0.07 0.05 0.04 0.03 0.02 0.02 0.01 0.01 0.01 0.01 0.01 0.01 0.01 0.01 0.01 0.01 0.01 0.01 0.01 0.01 0.01 0.01 0.01 0.02 0.02 0.03 0.04 0.06 0.07 0.09 0.10 0.10 0.09 0.08 0.08 0.08 0.07 0.06 0.05 0.05 0.04 0.03
0.08 0.05 0.03 0.03 0.02 0.02 0.02 0.02 0.02 0.01 0.01 0.01 0.02 0.01 0.01 0.01 0.01 0.01 0.01 0.01 0.01 0.01 0.01 0.01 0.01 0.02 0.03 0.04 0.04 0.04 0.04 0.04 0.04 0.04 0.05 0.05 0.05 0.05 0.05 0.05 0.05 0.06 0.06
0.05 0.04 0.04 0.03 0.03 0.02 0.02 0.02 0.02 0.01 0.02 0.02 0.02 0.02 0.02 0.02 0.01 0.01 0.01 0.01 0.01 0.01 0.01 0.01 0.01 0.02 0.03 0.03 0.04 0.03 0.03 0.03 0.03 0.03 0.04 0.05 0.07 0.09 0.10 0.12 0.12 0.11 0.10
MSLP
1015.32 1015.64 1015.91 1016.15 1016.37 1016.60 1016.83 1017.07 1017.29 1017.46 1017.54 1017.52 1017.41 1017.24 1017.07 1016.96 1016.96 1017.12 1017.44 1017.89 1018.41 1018.93 1019.39 1019.73 1019.93 1020.01 1020.01 1019.97 1019.95 1019.98 1020.09 1020.25 1020.46 1020.66 1020.84 1020.96 1021.04 1021.07 1021.07 1021.06 1021.08 1021.12 1021.18
1015.70 1016.06 1016.37 1016.62 1016.83 1017.02 1017.20 1017.38 1017.53 1017.64 1017.67 1017.62 1017.48 1017.29 1017.09 1016.95 1016.92 1017.03 1017.29 1017.69 1018.16 1018.65 1019.10 1019.45 1019.68 1019.80 1019.84 1019.84 1019.85 1019.90 1020.00 1020.15 1020.34 1020.54 1020.71 1020.84 1020.92 1020.96 1020.98 1020.99 1021.02 1021.06 1021.12
1016.10 1016.49 1016.81 1017.07 1017.27 1017.43 1017.58 1017.70 1017.80 1017.86 1017.85 1017.76 1017.60 1017.38 1017.16 1016.97 1016.88 1016.92 1017.11 1017.42 1017.82 1018.25 1018.67 1019.02 1019.28 1019.45 1019.54 1019.59 1019.63 1019.70 1019.81 1019.95 1020.12 1020.29 1020.45 1020.57 1020.66 1020.72 1020.76 1020.80 1020.84 1020.90 1020.97
1016.42 1016.82 1017.15 1017.41 1017.61 1017.75 1017.87 1017.96 1018.02 1018.04 1018.00 1017.89 1017.71 1017.47 1017.22 1016.99 1016.83 1016.79 1016.87 1017.08 1017.38 1017.73 1018.10 1018.43 1018.70 1018.90 1019.04 1019.14 1019.23 1019.32 1019.44 1019.57 1019.72 1019.88 1020.01 1020.13 1020.23 1020.30 1020.37 1020.44 1020.52 1020.60 1020.69
1016.60 1016.99 1017.32 1017.57 1017.76 1017.90 1018.00 1018.08 1018.12 1018.12 1018.06 1017.94 1017.75 1017.50 1017.23 1016.96 1016.74 1016.61 1016.59 1016.67 1016.86 1017.11 1017.39 1017.67 1017.93 1018.14 1018.32 1018.46 1018.59 1018.71 1018.85 1018.98 1019.12 1019.26 1019.38 1019.50 1019.60 1019.69 1019.79 1019.90 1020.01 1020.14 1020.25
1016.60 1016.96 1017.27 1017.52 1017.71 1017.85 1017.96 1018.03 1018.06 1018.06 1018.01 1017.89 1017.71 1017.47 1017.19 1016.90 1016.63 1016.42 1016.29 1016.25 1016.30 1016.42 1016.60 1016.80 1017.00 1017.20 1017.39 1017.56 1017.72 1017.88 1018.04 1018.19 1018.34 1018.47 1018.59 1018.70 1018.81 1018.92 1019.05 1019.19 1019.35 1019.50 1019.64
1016.42 1016.74 1017.03 1017.27 1017.47 1017.63 1017.74 1017.82 1017.87 1017.88 1017.84 1017.75 1017.59 1017.38 1017.11 1016.82 1016.52 1016.25 1016.03 1015.87 1015.78 1015.76 1015.80 1015.88 1016.01 1016.16 1016.33 1016.52 1016.71 1016.90 1017.09 1017.27 1017.43 1017.58 1017.70 1017.82 1017.93 1018.06 1018.21 1018.37 1018.55 1018.73 1018.90
1016.12 1016.39 1016.65 1016.89 1017.10 1017.28 1017.42 1017.52 1017.59 1017.62 1017.60 1017.54 1017.43 1017.25 1017.03 1016.76 1016.46 1016.16 1015.86 1015.59 1015.37 1015.20 1015.09 1015.04 1015.06 1015.14 1015.27 1015.45 1015.66 1015.89 1016.12 1016.33 1016.52 1016.68 1016.82 1016.95 1017.07 1017.20 1017.35 1017.52 1017.71 1017.90 1018.07
1015.77 1015.99 1016.23 1016.47 1016.69 1016.89 1017.05 1017.18 1017.27 1017.32 1017.34 1017.31 1017.25 1017.13 1016.96 1016.74 1016.47 1016.16 1015.82 1015.47 1015.13 1014.82 1014.56 1014.38 1014.28 1014.27 1014.34 1014.50 1014.72 1014.97 1015.23 1015.49 1015.72 1015.91 1016.06 1016.19 1016.31 1016.43 1016.56 1016.71 1016.89 1017.06 1017.23
1015.43 1015.61 1015.83 1016.07 1016.30 1016.52 1016.70 1016.85 1016.95 1017.02 1017.06 1017.07 1017.06 1017.00 1016.90 1016.75 1016.53 1016.24 1015.89 1015.50 1015.07 1014.66 1014.28 1013.96 1013.74 1013.64 1013.65 1013.77 1013.99 1014.25 1014.55 1014.84 1015.10 1015.32 1015.48 1015.61 1015.71 1015.80 1015.90 1016.02 1016.15 1016.30 1016.44
1015.13 1015.29 1015.49 1015.73 1015.98 1016.21 1016.40 1016.54 1016.65 1016.72 1016.78 1016.81 1016.84 1016.84 1016.82 1016.74 1016.59 1016.36 1016.04 1015.63 1015.17 1014.68 1014.21 1013.79 1013.48 1013.29 1013.24 1013.32 1013.52 1013.79 1014.11 1014.43 1014.71 1014.94 1015.10 1015.21 1015.29 1015.34 1015.39 1015.46 1015.54 1015.63 1015.73
1014.89 1015.03 1015.23 1015.46 1015.71 1015.93 1016.11 1016.25 1016.34 1016.40 1016.45 1016.49 1016.55 1016.61 1016.65 1016.65 1016.59 1016.43 1016.17 1015.80 1015.34 1014.82 1014.30 1013.82 1013.44 1013.18 1013.08 1013.13 1013.30 1013.57 1013.89 1014.21 1014.50 1014.73 1014.88 1014.97 1015.01 1015.02 1015.02 1015.02 1015.05 1015.09 1015.14
1014.67 1014.80 1014.99 1015.22 1015.45 1015.66 1015.82 1015.93 1015.99 1016.02 1016.04 1016.08 1016.15 1016.24 1016.35 1016.43 1016.45 1016.38 1016.20 1015.89 1015.48 1014.98 1014.46 1013.96 1013.54 1013.25 1013.11 1013.12 1013.26 1013.51 1013.81 1014.12 1014.40 1014.61 1014.75 1014.81 1014.82 1014.79 1014.74 1014.69 1014.67 1014.67 1014.68
1014.44 1014.57 1014.75 1014.96 1015.17 1015.35 1015.48 1015.55 1015.57 1015.56 1015.55 1015.57 1015.63 1015.74 1015.89 1016.03 1016.13 1016.16 1016.06 1015.85 1015.50 1015.07 1014.59 1014.11 1013.69 1013.39 1013.22 1013.20 1013.32 1013.53 1013.80 1014.08 1014.32 1014.51 1014.62 1014.66 1014.64 1014.58 1014.50 1014.43 1014.38 1014.35 1014.34
1014.16 1014.28 1014.45 1014.64 1014.83 1014.98 1015.08 1015.11 1015.08 1015.03 1014.98 1014.97 1015.02 1015.13 1015.29 1015.48 1015.65 1015.75 1015.75 1015.63 1015.38 1015.03 1014.61 1014.19 1013.80 1013.51 1013.34 1013.29 1013.37 1013.54 1013.76 1013.99 1014.20 1014.35 1014.44 1014.46 1014.43 1014.36 1014.28 1014.21 1014.15 1014.12 1014.10
1013.80 1013.92 1014.08 1014.26 1014.43 1014.56 1014.62 1014.62 1014.57 1014.48 1014.39 1014.35 1014.37 1014.47 1014.64 1014.84 1015.05 1015.21 1015.28 1015.25 1015.09 1014.83 1014.50 1014.15 1013.82 1013.56 1013.39 1013.33 1013.37 1013.49 1013.66 1013.84 1014.00 1014.11 1014.18 1014.19 1014.17 1014.12 1014.07 1014.02 1013.99 1013.97 1013.98
1013.37 1013.49 1013.65 1013.82 1013.98 1014.10 1014.16 1014.14 1014.07 1013.96 1013.85 1013.78 1013.78 1013.85 1014.00 1014.20 1014.42 1014.61 1014.73 1014.76 1014.69 1014.52 1014.28 1014.00 1013.74 1013.51 1013.36 1013.30 1013.31 1013.38 1013.49 1013.62 1013.73 1013.81 1013.86 1013.88 1013.88 1013.86 1013.86 1013.86 1013.88 1013.91 1013.94
1012.90 1013.03 1013.18 1013.36 1013.52 1013.64 1013.70 1013.70 1013.63 1013.52 1013.40 1013.32 1013.29 1013.33 1013.45 1013.62 1013.82 1014.01 1014.16 1014.23 1014.22 1014.13 1013.97 1013.78 1013.58 1013.41 1013.28 1013.22 1013.21 1013.24 1013.30 1013.37 1013.44 1013.50 1013.54 1013.57 1013.59 1013.63 1013.68 1013.74 1013.82 1013.90 1013.98
1012.41 1012.54 1012.71 1012.89 1013.06 1013.20 1013.28 1013.29 1013.25 1013.15 1013.04 1012.95 1012.90 1012.92 1013.00 1013.14 1013.30 1013.48 1013.62 1013.72 1013.75 1013.72 1013.63 1013.51 1013.39 1013.27 1013.18 1013.13 1013.11 1013.12 1013.14 1013.17 1013.20 1013.23 1013.26 1013.30 1013.36 1013.45 1013.55 1013.68 1013.81 1013.94 1014.05
1011.91 1012.05 1012.22 1012.41 1012.60 1012.75 1012.86 1012.90 1012.88 1012.82 1012.73 1012.65 1012.59 1012.58 1012.63 1012.72 1012.85 1012.99 1013.12 1013.22 1013.28 1013.30 1013.28 1013.24 1013.18 1013.13 1013.09 1013.06 1013.05 1013.04 1013.04 1013.04 1013.04 1013.05 1013.08 1013.13 1013.21 1013.33 1013.48 1013.65 1013.83 1013.99 1014.13
1011.43 1011.57 1011.73 1011.92 1012.11 1012.27 1012.40 1012.47 1012.48 1012.45 1012.39 1012.32 1012.27 1012.25 1012.27 1012.33 1012.43 1012.54 1012.65 1012.75 1012.83 1012.89 1012.93 1012.96 1012.97 1012.99 1013.00 1013.02 1013.03 1013.02 1013.01 1013.00 1012.98 1012.97 1012.99 1013.04 1013.13 1013.26 1013.44 1013.63 1013.83 1014.02 1014.17
1010.94 1011.07 1011.22 1011.40 1011.57 1011.73 1011.85 1011.94 1011.97 1011.97 1011.94 1011.90 1011.87 1011.85 1011.87 1011.91 1011.98 1012.07 1012.18 1012.28 1012.38 1012.48 1012.58 1012.67 1012.76 1012.84 1012.92 1012.98 1013.02 1013.04 1013.04 1013.01 1012.98 1012.96 1012.97 1013.01 1013.10 1013.23 1013.41 1013.60 1013.80 1013.99 1014.13
1010.47 1010.58 1010.70 1010.84 1010.97 1011.11 1011.22 1011.30 1011.35 1011.37 1011.37 1011.36 1011.36 1011.37 1011.39 1011.44 1011.51 1011.60 1011.70 1011.82 1011.94 1012.08 1012.22 1012.37 1012.53 1012.68 1012.81 1012.93 1013.01 1013.05 1013.07 1013.05 1013.02 1012.99 1012.98 1013.01 1013.08 1013.20 1013.35 1013.53 1013.71 1013.87 1013.99
1010.03 1010.10 1010.19 1010.27 1010.36 1010.45 1010.53 1010.60 1010.65 1010.69 1010.73 1010.76 1010.79 1010.83 1010.89 1010.96 1011.04 1011.14 1011.26 1011.39 1011.54 1011.70 1011.88 1012.08 1012.28 1012.48 1012.67 1012.83 1012.95 1013.02 1013.06 1013.05 1013.03 1013.00 1012.98 1012.99 1013.04 1013.13 1013.25 1013.40 1013.54 1013.66 1013.75
1009.64 1009.69 1009.73 1009.77 1009.80 1009.85 1009.89 1009.94 1010.00 1010.06 1010.12 1010.20 1010.28 1010.36 1010.46 1010.56 1010.67 1010.79 1010.92 1011.06 1011.22 1011.40 1011.60 1011.82 1012.05 1012.28 1012.49 1012.68 1012.83 1012.93 1012.99 1013.00 1012.99 1012.96 1012.94 1012.94 1012.97 1013.03 1013.11 1013.21 1013.31 1013.39 1013.44
1009.36 1009.39 1009.40 1009.40 1009.40 1009.41 1009.43 1009.47 1009.53 1009.61 1009.70 1009.82 1009.95 1010.08 1010.22 1010.36 1010.49 1010.63 1010.76 1010.90 1011.06 1011.23 1011.42 1011.64 1011.86 1012.09 1012.31 1012.50 1012.66 1012.77 1012.84 1012.88 1012.88 1012.87 1012.86 1012.85 1012.86 1012.89 1012.94 1013.00 1013.05 1013.08 1013.09
Thickness
5751 5751 5749 5748 5749 5748 5747 5746 5747 5747 5747 5748 5749 5749 5748 5749 5750 5749 5748 5744 5743 5742 5741 5740 5739 5738 5736 5735 5734 5732 5731 5730 5729 5727 5726 5725 5724 5723 5721 5721 5719 5718 5717
5751 5750 5749 5748 5748 5748 5748 5748 5748 5747 5748 5749 5749 5750 5750 5750 5749 5749 5749 5747 5744 5743 5742 5741 5740 5739 5737 5736 5734 5733 5732 5730 5729 5728 5727 5725 5724 5723 5722 5720 5719 5718 5717
5750 5750 5750 5748 5749 5748 5747 5747 5748 5748 5748 5749 5750 5751 5751 5751 5751 5750 5750 5750 5749 5746 5744 5742 5741 5740 5738 5737 5735 5733 5732 5731 5730 5729 5727 5726 5724 5723 5722 5720 5719 5718 5716
5750 5750 5750 5750 5749 5748 5748 5748 5749 5748 5749 5750 5750 5751 5753 5752 5752 5751 5751 5751 5751 5751 5748 5745 5743 5741 5740 5738 5737 5735 5734 5732 5731 5730 5728 5726 5725 5723 5722 5721 5719 5718 5716
5752 5751 5751 5750 5749 5749 5749 5750 5751 5750 5748 5749 5751 5752 5754 5754 5754 5754 5754 5754 5752 5751 5751 5748 5745 5744 5742 5740 5739 5737 5736 5734 5733 5731 5729 5727 5726 5724 5723 5721 5720 5718 5717
5754 5753 5752 5751 5750 5750 5749 5749 5748 5748 5749 5749 5752 5753 5754 5756 5755 5755 5755 5756 5754 5753 5753 5751 5748 5747 5744 5743 5741 5740 5738 5737 5735 5733 5731 5729 5727 5726 5724 5722 5720 5718 5717
5755 5753 5754 5752 5751 5750 5749 5750 5749 5748 5748 5749 5747 5748 5753 5756 5757 5756 5756 5756 5756 5755 5754 5752 5751 5750 5749 5745 5743 5742 5740 5738 5737 5735 5733 5731 5729 5727 5725 5723 5721 5719 5717
5756 5756 5754 5754 5753 5751 5750 5749 5748 5748 5748 5749 5746 5743 5743 5749 5752 5758 5757 5755 5755 5755 5755 5754 5752 5750 5749 5750 5748 5744 5742 5740 5738 5736 5734 5732 5730 5728 5726 5724 5722 5720 5718
5758 5757 5757 5756 5755 5753 5752 5750 5749 5746 5745 5747 5748 5744 5740 5739 5747 5754 5755 5756 5755 5754 5755 5754 5753 5752 5750 5749 5749 5746 5743 5741 5739 5737 5735 5733 5731 5729 5727 5725 5723 5721 5718
5762 5760 5758 5757 5756 5755 5753 5752 5753 5749 5746 5744 5747 5747 5746 5745 5740 5742 5750 5754 5754 5753 5753 5754 5754 5753 5751 5750 5748 5746 5743 5741 5739 5737 5735 5733 5731 5730 5728 5726 5724 5721 5719
5765 5763 5761 5758 5756 5756 5754 5753 5751 5749 5749 5746 5745 5746 5745 5744 5743 5739 5740 5745 5749 5752 5752 5752 5752 5752 5751 5749 5747 5746 5743 5740 5738 5736 5734 5733 5731 5729 5728 5726 5724 5722 5719
5768 5766 5764 5761 5758 5757 5755 5753 5751 5750 5749 5747 5746 5746 5744 5742 5742 5741 5739 5741 5742 5747 5750 5750 5750 5750 5749 5748 5746 5744 5741 5738 5736 5735 5733 5731 5730 5728 5727 5725 5724 5722 5720
5771 5768 5766 5762 5760 5758 5757 5754 5752 5751 5749 5747 5746 5746 5746 5745 5745 5743 5740 5740 5740 5744 5745 5747 5748 5747 5747 5745 5743 5740 5738 5735 5734 5732 5731 5729 5728 5726 5725 5723 5722 5720 5718
5774 5771 5767 5764 5762 5760 5758 5755 5753 5751 5749 5747 5747 5746 5745 5745 5745 5743 5740 5737 5736 5739 5741 5741 5744 5743 5742 5740 5738 5736 5735 5733 5731 5729 5728 5726 5725 5723 5722 5720 5719 5717 5716
5775 5771 5768 5765 5762 5760 5758 5755 5753 5750 5748 5746 5746 5745 5743 5744 5743 5742 5741 5738 5733 5730 5733 5736 5737 5739 5737 5735 5734 5732 5731 5729 5726 5725 5723 5722 5721 5719 5718 5716 5715 5713 5712
5773 5769 5766 5764 5761 5759 5757 5754 5752 5750 5747 5745 5743 5741 5740 5742 5740 5739 5738 5737 5735 5731 5728 5733 5733 5734 5732 5731 5729 5728 5727 5724 5722 5720 5719 5718 5717 5715 5713 5712 5710 5709 5707
5772 5768 5765 5762 5759 5757 5754 5752 5751 5748 5746 5744 5742 5740 5738 5737 5736 5736 5734 5733 5732 5729 5725 5728 5729 5729 5725 5723 5723 5723 5722 5720 5719 5716 5714 5712 5712 5710 5709 5707 5705 5703 5702
5772 5769 5765 5761 5758 5755 5752 5750 5748 5746 5744 5741 5739 5737 5735 5735 5732 5731 5730 5728 5727 5725 5723 5720 5722 5722 5720 5718 5717 5716 5716 5716 5714 5711 5708 5706 5705 5704 5703 5700 5699 5697 5696
5771 5768 5764 5760 5757 5753 5750 5748 5745 5743 5741 5739 5737 5734 5732 5729 5726 5726 5724 5724 5723 5723 5720 5718 5717 5717 5715 5714 5711 5711 5711 5708 5708 5706 5702 5700 5698 5697 5695 5693 5691 5690 5689
5769 5766 5763 5760 5756 5753 5749 5746 5743 5741 5738 5736 5734 5731 5729 5726 5723 5720 5719 5717 5716 5715 5715 5713 5712 5711 5709 5708 5705 5704 5703 5702 5701 5701 5698 5695 5692 5691 5689 5687 5685 5683 5682
5768 5764 5760 5757 5754 5751 5747 5744 5741 5738 5734 5732 5730 5728 5725 5720 5717 5715 5715 5713 5711 5710 5709 5708 5705 5704 5701 5698 5697 5697 5696 5695 5694 5693 5692 5691 5689 5687 5684 5680 5678 5675 5674
5764 5761 5756 5753 5749 5747 5741 5737 5736 5735 5731 5728 5725 5723 5720 5716 5712 5708 5705 5703 5702 5702 5702 5700 5697 5694 5692 5691 5690 5690 5689 5687 5685 5685 5684 5684 5683 5681 5678 5675 5670 5668 5665
5759 5755 5752 5748 5744 5740 5735 5731 5728 5729 5727 5724 5720 5717 5716 5714 5708 5706 5702 5698 5696 5693 5691 5692 5690 5688 5686 5685 5683 5682 5680 5678 5677 5677 5675 5674 5674 5672 5670 5666 5662 5660 5657
5755 5751 5748 5745 5740 5735 5729 5726 5723 5723 5722 5718 5715 5711 5708 5705 5703 5699 5698 5696 5693 5690 5687 5686 5684 5682 5680 5678 5676 5675 5673 5672 5670 5669 5667 5666 5665 5663 5663 5660 5655 5652 5650
5750 5746 5742 5739 5734 5729 5723 5720 5717 5718 5715 5712 5709 5705 5701 5697 5690 5688 5690 5689 5686 5684 5680 5677 5674 5672 5670 5669 5668 5669 5667 5666 5664 5662 5659 5658 5657 5656 5655 5653 5649 5644 5642
5744 5740 5736 5732 5728 5723 5715 5712 5710 5713 5709 5706 5702 5697 5691 5687 5682 5679 5682 5681 5678 5676 5675 5672 5669 5666 5665 5663 5660 5660 5660 5659 5657 5655 5652 5648 5649 5647 5646 5646 5642 5638 5635